When you browse on this site, cookies collect data to enhance your experience and personalize the content and advertising you see.
Visit our Privacy Policy to learn more. By continuing to use the site, you agree to this use of cookies and data.
  • In Schweiz
  • Länderverzeichnis
  • Für 7 Tage
  • Wassertemperatur
  • Wetterkarte
  • Widgets
  • user-avatar
    Anmelden

    Stündliche Wetter Brisbane

    Heute, 6 Juni, Samstag

    Zeit Temperatur Niederschläge Wind Luftdruck Luftfeuchtigkeit
    00:00 +14°C° 0 mm 2 m/S 767 mmHg 81%
    01:00 +14°C° 0 mm 2 m/S 767 mmHg 83%
    02:00 +13°C° 0 mm 2 m/S 766 mmHg 83%
    03:00 +13°C° 0 mm 2 m/S 766 mmHg 83%
    04:00 +13°C° 0 mm 2 m/S 766 mmHg 84%
    05:00 +12°C° 0 mm 2 m/S 766 mmHg 83%
    06:00 +12°C° 0 mm 2 m/S 766 mmHg 83%
    07:00 +12°C° 0 mm 2 m/S 766 mmHg 83%
    08:00 +15°C° 0 mm 2 m/S 766 mmHg 73%
    09:00 +17°C° 0 mm 2 m/S 766 mmHg 63%
    10:00 +20°C° 0 mm 2 m/S 766 mmHg 53%
    11:00 +22°C° 0 mm 1 m/S 765 mmHg 49%
    12:00 +23°C° 0 mm 1 m/S 765 mmHg 45%
    13:00 +24°C° 0 mm 1 m/S 764 mmHg 41%
    14:00 +24°C° 0 mm 1 m/S 764 mmHg 45%
    15:00 +23°C° 0 mm 2 m/S 763 mmHg 48%
    16:00 +21°C° 0 mm 2 m/S 763 mmHg 52%
    17:00 +20°C° 0 mm 2 m/S 764 mmHg 60%
    18:00 +18°C° 0 mm 2 m/S 764 mmHg 68%
    19:00 +18°C° 0 mm 1 m/S 764 mmHg 77%
    20:00 +16°C° 0 mm 1 m/S 765 mmHg 79%
    21:00 +16°C° 0 mm 1 m/S 765 mmHg 81%
    22:00 +15°C° 0 mm 1 m/S 765 mmHg 83%
    23:00 +15°C° 0 mm 1 m/S 765 mmHg 84%

    Morgen, 7 Juni, Sonntag

    Zeit Temperatur Niederschläge Wind Luftdruck Luftfeuchtigkeit
    00:00 +14°C° 0 mm 1 m/S 764 mmHg 85%
    01:00 +14°C° 0 mm 1 m/S 764 mmHg 86%
    02:00 +14°C° 0 mm 1 m/S 764 mmHg 87%
    03:00 +13°C° 0 mm 2 m/S 764 mmHg 87%
    04:00 +13°C° 0 mm 2 m/S 764 mmHg 88%
    05:00 +13°C° 0 mm 2 m/S 764 mmHg 88%
    06:00 +13°C° 0 mm 2 m/S 765 mmHg 87%
    07:00 +13°C° 0 mm 2 m/S 765 mmHg 87%
    08:00 +15°C° 0 mm 2 m/S 765 mmHg 78%
    09:00 +19°C° 0 mm 1 m/S 764 mmHg 69%
    10:00 +21°C° 0 mm 1 m/S 764 mmHg 59%
    11:00 +22°C° 0 mm 1 m/S 764 mmHg 54%
    12:00 +23°C° 0 mm 1 m/S 763 mmHg 48%
    13:00 +24°C° 0 mm 1 m/S 762 mmHg 43%
    14:00 +24°C° 0 mm 1 m/S 762 mmHg 47%
    15:00 +23°C° 0 mm 2 m/S 762 mmHg 51%
    16:00 +21°C° 0 mm 2 m/S 762 mmHg 55%
    17:00 +20°C° 0 mm 2 m/S 763 mmHg 62%
    18:00 +18°C° 0 mm 2 m/S 763 mmHg 68%
    19:00 +17°C° 0 mm 2 m/S 764 mmHg 75%
    20:00 +18°C° 0.2 mm 1 m/S 764 mmHg 77%
    21:00 +16°C° 0.2 mm 1 m/S 764 mmHg 79%
    22:00 +16°C° 0.2 mm 1 m/S 764 mmHg 80%
    23:00 +16°C° 0.1 mm 1 m/S 764 mmHg 82%

    übermorgen, 8 Juni, Montag

    Zeit Temperatur Niederschläge Wind Luftdruck Luftfeuchtigkeit
    00:00 +15°C° 0.1 mm 1 m/S 764 mmHg 83%
    01:00 +15°C° 0.1 mm 1 m/S 764 mmHg 84%
    02:00 +15°C° 0 mm 1 m/S 764 mmHg 85%
    03:00 +14°C° 0 mm 1 m/S 764 mmHg 86%
    04:00 +14°C° 0 mm 1 m/S 764 mmHg 88%
    05:00 +14°C° 0.1 mm 2 m/S 764 mmHg 88%
    06:00 +13°C° 0.1 mm 2 m/S 765 mmHg 88%
    07:00 +13°C° 0.1 mm 2 m/S 765 mmHg 88%
    08:00 +15°C° 0 mm 2 m/S 765 mmHg 79%
    09:00 +17°C° 0 mm 2 m/S 765 mmHg 69%
    10:00 +19°C° 0 mm 2 m/S 765 mmHg 59%
    11:00 +20°C° 0 mm 2 m/S 765 mmHg 53%
    12:00 +21°C° 0 mm 2 m/S 765 mmHg 46%
    13:00 +22°C° 0 mm 3 m/S 764 mmHg 40%
    14:00 +21°C° 0 mm 3 m/S 764 mmHg 42%
    15:00 +21°C° 0 mm 3 m/S 765 mmHg 44%
    16:00 +21°C° 0 mm 3 m/S 765 mmHg 47%
    17:00 +19°C° 0 mm 3 m/S 766 mmHg 54%
    18:00 +17°C° 0 mm 3 m/S 766 mmHg 61%
    19:00 +16°C° 0 mm 3 m/S 767 mmHg 68%
    20:00 +14°C° 0 mm 3 m/S 767 mmHg 73%
    21:00 +14°C° 0 mm 3 m/S 768 mmHg 77%
    22:00 +13°C° 0 mm 3 m/S 768 mmHg 81%
    23:00 +13°C° 0 mm 3 m/S 768 mmHg 83%

    9 Juni, Dienstag

    Zeit Temperatur Niederschläge Wind Luftdruck Luftfeuchtigkeit
    00:00 +12°C° 0 mm 3 m/S 768 mmHg 84%
    01:00 +12°C° 0 mm 3 m/S 767 mmHg 85%
    02:00 +12°C° 0 mm 3 m/S 767 mmHg 86%
    03:00 +13°C° 0 mm 2 m/S 767 mmHg 86%
    04:00 +13°C° 0 mm 2 m/S 767 mmHg 87%
    05:00 +13°C° 0 mm 2 m/S 768 mmHg 87%
    06:00 +13°C° 0 mm 2 m/S 768 mmHg 86%
    07:00 +13°C° 0 mm 2 m/S 768 mmHg 86%
    08:00 +14°C° 0 mm 3 m/S 769 mmHg 78%
    09:00 +17°C° 0 mm 3 m/S 769 mmHg 71%
    10:00 +20°C° 0 mm 4 m/S 769 mmHg 63%
    11:00 +20°C° 0.1 mm 4 m/S 769 mmHg 60%
    12:00 +21°C° 0.1 mm 5 m/S 768 mmHg 58%
    13:00 +22°C° 0.1 mm 5 m/S 768 mmHg 55%
    14:00 +22°C° 0.1 mm 5 m/S 768 mmHg 57%
    15:00 +21°C° 0.1 mm 5 m/S 767 mmHg 59%
    16:00 +21°C° 0.1 mm 5 m/S 767 mmHg 61%
    17:00 +20°C° 0 mm 5 m/S 768 mmHg 66%
    18:00 +19°C° 0 mm 5 m/S 768 mmHg 71%
    19:00 +17°C° 0 mm 4 m/S 769 mmHg 76%
    20:00 +17°C° 0 mm 4 m/S 768 mmHg 77%
    21:00 +17°C° 0 mm 4 m/S 768 mmHg 78%
    22:00 +15°C° 0 mm 4 m/S 768 mmHg 79%
    23:00 +15°C° 0 mm 4 m/S 768 mmHg 81%

    10 Juni, Mittwoch

    Zeit Temperatur Niederschläge Wind Luftdruck Luftfeuchtigkeit
    00:00 +14°C° 0 mm 3 m/S 768 mmHg 83%
    01:00 +14°C° 0 mm 3 m/S 768 mmHg 84%
    02:00 +14°C° 0.1 mm 3 m/S 768 mmHg 85%
    03:00 +14°C° 0.1 mm 3 m/S 768 mmHg 85%
    04:00 +14°C° 0.1 mm 2 m/S 767 mmHg 86%
    05:00 +14°C° 0.1 mm 2 m/S 768 mmHg 86%
    06:00 +14°C° 0.1 mm 2 m/S 768 mmHg 86%
    07:00 +14°C° 0.1 mm 2 m/S 768 mmHg 87%
    08:00 +16°C° 0.1 mm 2 m/S 768 mmHg 80%
    09:00 +17°C° 0.1 mm 3 m/S 768 mmHg 73%
    10:00 +19°C° 0.1 mm 3 m/S 768 mmHg 66%
    11:00 +19°C° 0.2 mm 3 m/S 767 mmHg 68%
    12:00 +19°C° 0.2 mm 3 m/S 766 mmHg 70%
    13:00 +20°C° 0.2 mm 3 m/S 766 mmHg 72%
    14:00 +19°C° 0.4 mm 3 m/S 766 mmHg 75%
    15:00 +19°C° 0.4 mm 2 m/S 765 mmHg 77%
    16:00 +18°C° 0.4 mm 2 m/S 765 mmHg 80%
    17:00 +18°C° 0.6 mm 2 m/S 766 mmHg 82%
    18:00 +18°C° 0.6 mm 2 m/S 766 mmHg 84%
    19:00 +18°C° 0.6 mm 1 m/S 766 mmHg 86%
    20:00 +18°C° 0.3 mm 1 m/S 766 mmHg 86%
    21:00 +17°C° 0.3 mm 2 m/S 766 mmHg 87%
    22:00 +17°C° 0.3 mm 2 m/S 766 mmHg 88%
    23:00 +16°C° 0 mm 2 m/S 766 mmHg 88%

    11 Juni, Donnerstag

    Zeit Temperatur Niederschläge Wind Luftdruck Luftfeuchtigkeit
    00:00 +16°C° 0 mm 2 m/S 766 mmHg 88%
    01:00 +16°C° 0 mm 2 m/S 765 mmHg 88%
    02:00 +16°C° 0 mm 2 m/S 765 mmHg 87%
    03:00 +15°C° 0 mm 2 m/S 765 mmHg 87%
    04:00 +15°C° 0 mm 2 m/S 765 mmHg 87%
    05:00 +15°C° 0 mm 2 m/S 765 mmHg 86%
    06:00 +15°C° 0 mm 1 m/S 765 mmHg 85%
    07:00 +15°C° 0 mm 1 m/S 765 mmHg 85%
    08:00 +18°C° 0 mm 1 m/S 765 mmHg 78%
    09:00 +20°C° 0 mm 1 m/S 765 mmHg 71%
    10:00 +21°C° 0 mm 1 m/S 765 mmHg 64%
    11:00 +22°C° 0 mm 1 m/S 764 mmHg 58%
    12:00 +24°C° 0 mm 1 m/S 764 mmHg 52%
    13:00 +25°C° 0 mm 2 m/S 763 mmHg 47%
    14:00 +24°C° 0 mm 2 m/S 763 mmHg 50%
    15:00 +23°C° 0 mm 2 m/S 763 mmHg 54%
    16:00 +23°C° 0 mm 2 m/S 763 mmHg 57%
    17:00 +20°C° 0 mm 2 m/S 763 mmHg 64%
    18:00 +19°C° 0 mm 2 m/S 763 mmHg 71%
    19:00 +18°C° 0 mm 2 m/S 764 mmHg 78%
    20:00 +17°C° 0 mm 2 m/S 764 mmHg 80%
    21:00 +17°C° 0 mm 2 m/S 764 mmHg 81%
    22:00 +16°C° 0 mm 2 m/S 764 mmHg 82%
    23:00 +16°C° 0 mm 2 m/S 764 mmHg 83%
    Mehr zeigen